カタログに戻る

RUBIN 3/SL-8

運用中科学SSO
NORAD 27561·PAYLOAD·🇩🇪 Germany

打ち上げ Nov 28, 2002 から Plesetsk Cosmodrome

Loading…

次のパス (今後24時間)

TLE

最新Source: Space-Track

元期: Sep 14, 2026, 13:32 UTC

1 27561U 02054C   26257.56454739  .00000229  00000-0  59383-4 0  9992
2 27561  98.4441 119.7201 0043373 212.4453 147.4078 14.58625180263704

AllMySatでRUBIN 3/SL-8をリアルタイム追跡

Download on the App Store